Time,TemperatureF,DewpointF,PressureIn,WindDirection,WindDirectionDegrees,WindSpeedMPH,WindSpeedGustMPH,Humidity,HourlyPrecipIn,Conditions,Clouds,dailyrainin,SoftwareType,DateUTC
2013-04-22 00:00:00,62.3,52.0,30.02,SE,131,7.0,7.0,69,0.00,,,0.00,Wunderground v.1.15,2013-04-22 05:00:00,
2013-04-22 00:10:00,62.1,52.2,30.02,SE,129,7.0,7.0,70,0.00,,,0.00,Wunderground v.1.15,2013-04-22 05:10:00,
2013-04-22 00:20:00,61.7,52.2,30.02,SE,129,5.0,10.0,71,0.00,,,0.00,Wunderground v.1.15,2013-04-22 05:20:00,
2013-04-22 00:30:00,61.4,51.9,30.02,SE,126,7.0,7.0,71,0.00,,,0.00,Wunderground v.1.15,2013-04-22 05:30:00,
2013-04-22 00:40:00,61.3,52.2,30.02,ESE,123,7.0,7.0,72,0.00,,,0.00,Wunderground v.1.15,2013-04-22 05:40:00,
2013-04-22 00:50:00,61.3,52.2,30.02,ESE,123,7.0,7.0,72,0.00,,,0.00,Wunderground v.1.15,2013-04-22 05:50:00,
2013-04-22 01:00:00,61.1,52.0,30.01,SE,128,7.0,11.0,72,0.00,,,0.00,Wunderground v.1.15,2013-04-22 06:00:00,
2013-04-22 01:10:00,61.0,52.3,30.01,SE,136,7.0,10.0,73,0.00,,,0.00,Wunderground v.1.15,2013-04-22 06:10:00,
2013-04-22 01:20:00,60.9,52.6,30.01,SE,127,7.0,7.0,74,0.00,,,0.00,Wunderground v.1.15,2013-04-22 06:20:00,
2013-04-22 01:30:00,60.9,52.9,30.01,SE,138,8.0,10.0,75,0.00,,,0.00,Wunderground v.1.15,2013-04-22 06:30:00,
2013-04-22 01:40:00,60.8,52.8,30.01,SE,140,9.0,10.0,75,0.00,,,0.00,Wunderground v.1.15,2013-04-22 06:40:00,
2013-04-22 01:50:00,60.7,53.1,30.01,SE,134,9.0,10.0,76,0.00,,,0.00,Wunderground v.1.15,2013-04-22 06:50:00,
2013-04-22 02:00:00,60.5,53.3,30.00,SE,136,9.0,10.0,77,0.00,,,0.00,Wunderground v.1.15,2013-04-22 07:00:00,
2013-04-22 02:10:00,60.2,53.3,30.00,SE,130,7.0,7.0,78,0.00,,,0.00,Wunderground v.1.15,2013-04-22 07:10:00,
2013-04-22 02:20:00,60.0,53.1,30.00,SE,134,8.0,8.0,78,0.00,,,0.00,Wunderground v.1.15,2013-04-22 07:20:00,
2013-04-22 02:30:00,59.6,53.1,30.00,SE,128,6.0,10.0,79,0.00,,,0.00,Wunderground v.1.15,2013-04-22 07:30:00,
2013-04-22 02:40:00,59.3,53.1,29.99,SE,132,4.0,4.0,80,0.00,,,0.00,Wunderground v.1.15,2013-04-22 07:40:00,
2013-04-22 02:50:00,59.0,53.2,29.99,SE,133,5.0,10.0,81,0.00,,,0.00,Wunderground v.1.15,2013-04-22 07:50:00,
2013-04-22 03:00:00,58.7,53.2,29.99,SE,131,4.0,10.0,82,0.00,,,0.00,Wunderground v.1.15,2013-04-22 08:00:00,
2013-04-22 03:10:00,59.1,53.6,29.99,SE,143,8.0,8.0,82,0.00,,,0.00,Wunderground v.1.15,2013-04-22 08:10:00,
2013-04-22 03:20:00,59.6,54.4,29.98,SSE,155,9.0,10.0,83,0.00,,,0.00,Wunderground v.1.15,2013-04-22 08:20:00,
2013-04-22 03:30:00,60.2,55.0,29.98,SSE,150,10.0,10.0,83,0.00,,,0.00,Wunderground v.1.15,2013-04-22 08:30:00,
2013-04-22 03:40:00,60.9,55.7,29.98,SSE,148,9.0,13.0,83,0.00,,,0.00,Wunderground v.1.15,2013-04-22 08:40:00,
2013-04-22 03:50:00,61.7,56.1,29.98,South,169,13.0,13.0,82,0.00,,,0.00,Wunderground v.1.15,2013-04-22 08:50:00,
2013-04-22 04:00:00,61.9,56.3,29.98,SE,143,12.0,18.0,82,0.00,,,0.00,Wunderground v.1.15,2013-04-22 09:00:00,
2013-04-22 04:10:00,62.0,56.4,29.98,SSE,162,12.0,12.0,82,0.00,,,0.00,Wunderground v.1.15,2013-04-22 09:10:00,
2013-04-22 04:20:00,61.9,56.3,29.98,SSE,149,11.0,12.0,82,0.00,,,0.00,Wunderground v.1.15,2013-04-22 09:20:00,
2013-04-22 04:30:00,62.0,56.4,29.98,SE,135,12.0,17.0,82,0.00,,,0.00,Wunderground v.1.15,2013-04-22 09:30:00,
2013-04-22 04:40:00,62.0,56.4,29.98,SSE,164,12.0,12.0,82,0.00,,,0.00,Wunderground v.1.15,2013-04-22 09:40:00,
2013-04-22 04:50:00,62.0,56.4,29.98,SSE,158,11.0,11.0,82,0.00,,,0.00,Wunderground v.1.15,2013-04-22 09:50:00,
2013-04-22 05:00:00,62.0,56.4,29.98,SSE,159,14.0,14.0,82,0.00,,,0.00,Wunderground v.1.15,2013-04-22 10:00:00,
2013-04-22 05:10:00,61.9,56.3,29.98,South,170,12.0,14.0,82,0.00,,,0.00,Wunderground v.1.15,2013-04-22 10:10:00,
2013-04-22 05:20:00,61.8,56.2,29.98,South,173,11.0,14.0,82,0.00,,,0.00,Wunderground v.1.15,2013-04-22 10:20:00,
2013-04-22 05:30:00,61.6,55.7,29.98,SSE,166,14.0,14.0,81,0.00,,,0.00,Wunderground v.1.15,2013-04-22 10:30:00,
2013-04-22 05:40:00,61.4,55.5,29.98,SSE,159,11.0,11.0,81,0.00,,,0.00,Wunderground v.1.15,2013-04-22 10:40:00,
2013-04-22 05:50:00,61.1,55.6,29.98,SSE,167,11.0,11.0,82,0.00,,,0.00,Wunderground v.1.15,2013-04-22 10:50:00,
2013-04-22 06:00:00,60.7,55.2,29.98,SSE,161,10.0,12.0,82,0.00,,,0.00,Wunderground v.1.15,2013-04-22 11:00:00,
2013-04-22 06:10:00,60.2,55.0,29.98,SSE,163,10.0,10.0,83,0.00,,,0.00,Wunderground v.1.15,2013-04-22 11:10:00,
2013-04-22 06:20:00,59.6,54.8,29.98,SSE,151,7.0,10.0,84,0.00,,,0.00,Wunderground v.1.15,2013-04-22 11:20:00,
2013-04-22 06:30:00,59.2,54.7,29.98,SSE,161,8.0,8.0,85,0.00,,,0.00,Wunderground v.1.15,2013-04-22 11:30:00,
2013-04-22 06:40:00,59.0,54.8,29.98,SSE,157,7.0,7.0,86,0.00,,,0.00,Wunderground v.1.15,2013-04-22 11:40:00,
2013-04-22 06:50:00,59.1,54.9,29.98,SSE,155,8.0,10.0,86,0.00,,,0.00,Wunderground v.1.15,2013-04-22 11:50:00,
2013-04-22 07:00:00,59.2,55.0,29.98,South,170,8.0,10.0,86,0.00,,,0.00,Wunderground v.1.15,2013-04-22 12:00:00,
2013-04-22 07:10:00,59.6,55.1,29.98,SSE,155,8.0,10.0,85,0.00,,,0.00,Wunderground v.1.15,2013-04-22 12:10:00,
2013-04-22 07:20:00,59.7,55.2,29.99,SSE,159,9.0,10.0,85,0.00,,,0.00,Wunderground v.1.15,2013-04-22 12:20:00,
2013-04-22 07:30:00,59.7,55.2,29.99,SE,142,8.0,8.0,85,0.00,,,0.00,Wunderground v.1.15,2013-04-22 12:30:00,
2013-04-22 07:40:00,59.8,55.3,30.00,SSE,153,7.0,8.0,85,0.00,,,0.00,Wunderground v.1.15,2013-04-22 12:40:00,
2013-04-22 07:50:00,59.7,55.2,30.00,SSE,150,8.0,8.0,85,0.00,,,0.00,Wunderground v.1.15,2013-04-22 12:50:00,
2013-04-22 08:00:00,59.7,55.2,29.99,SSE,158,8.0,8.0,85,0.00,,,0.00,Wunderground v.1.15,2013-04-22 13:00:00,
2013-04-22 08:10:00,59.8,55.3,30.00,SSE,160,5.0,15.0,85,0.00,,,0.00,Wunderground v.1.15,2013-04-22 13:10:00,
2013-04-22 08:20:00,59.8,55.3,30.00,SSE,162,6.0,6.0,85,0.00,,,0.00,Wunderground v.1.15,2013-04-22 13:20:00,
2013-04-22 08:30:00,60.0,55.5,30.00,SSE,162,7.0,15.0,85,0.00,,,0.00,Wunderground v.1.15,2013-04-22 13:30:00,
2013-04-22 08:40:00,60.4,55.9,30.00,SSE,167,6.0,6.0,85,0.00,,,0.00,Wunderground v.1.15,2013-04-22 13:40:00,
2013-04-22 08:50:00,60.9,56.0,30.00,SSE,168,7.0,15.0,84,0.00,,,0.00,Wunderground v.1.15,2013-04-22 13:50:00,
2013-04-22 09:00:00,61.4,56.5,30.00,SSE,163,8.0,15.0,84,0.00,,,0.00,Wunderground v.1.15,2013-04-22 14:00:00,
2013-04-22 09:10:00,61.7,56.1,30.00,South,175,9.0,9.0,82,0.00,,,0.00,Wunderground v.1.15,2013-04-22 14:10:00,
2013-04-22 09:20:00,62.1,56.5,30.00,South,180,8.0,15.0,82,0.00,,,0.00,Wunderground v.1.15,2013-04-22 14:20:00,
2013-04-22 09:30:00,62.6,56.7,29.99,SSE,163,10.0,15.0,81,0.00,,,0.00,Wunderground v.1.15,2013-04-22 14:30:00,
2013-04-22 09:40:00,62.9,56.6,29.99,SSW,193,13.0,15.0,80,0.00,,,0.00,Wunderground v.1.15,2013-04-22 14:40:00,
2013-04-22 09:50:00,63.2,56.6,29.99,South,188,11.0,11.0,79,0.00,,,0.00,Wunderground v.1.15,2013-04-22 14:50:00,
2013-04-22 10:00:00,63.6,57.0,29.99,South,177,7.0,15.0,79,0.00,,,0.00,Wunderground v.1.15,2013-04-22 15:00:00,
2013-04-22 10:10:00,63.9,56.9,29.99,SSW,195,8.0,15.0,78,0.00,,,0.00,Wunderground v.1.15,2013-04-22 15:10:00,
2013-04-22 10:20:00,64.1,56.4,29.99,South,170,15.0,15.0,76,0.00,,,0.00,Wunderground v.1.15,2013-04-22 15:20:00,
2013-04-22 10:30:00,64.4,56.7,29.99,South,187,14.0,14.0,76,0.00,,,0.00,Wunderground v.1.15,2013-04-22 15:30:00,
2013-04-22 10:40:00,65.1,56.6,29.99,SSW,202,12.0,12.0,74,0.00,,,0.00,Wunderground v.1.15,2013-04-22 15:40:00,
2013-04-22 10:50:00,65.5,56.6,30.00,SSW,196,8.0,15.0,73,0.00,,,0.00,Wunderground v.1.15,2013-04-22 15:50:00,
2013-04-22 11:00:00,65.2,56.7,29.99,South,186,11.0,15.0,74,0.00,,,0.00,Wunderground v.1.15,2013-04-22 16:00:00,
2013-04-22 11:10:00,65.3,56.8,29.99,SSW,193,10.0,15.0,74,0.00,,,0.00,Wunderground v.1.15,2013-04-22 16:10:00,
2013-04-22 11:20:00,65.8,56.9,29.99,SSE,162,10.0,17.0,73,0.00,,,0.00,Wunderground v.1.15,2013-04-22 16:20:00,
2013-04-22 11:30:00,66.2,57.3,29.99,SSW,194,12.0,12.0,73,0.00,,,0.00,Wunderground v.1.15,2013-04-22 16:30:00,
2013-04-22 11:40:00,66.5,57.6,29.98,South,185,10.0,10.0,73,0.00,,,0.00,Wunderground v.1.15,2013-04-22 16:40:00,
2013-04-22 11:50:00,66.9,58.0,29.98,South,171,10.0,15.0,73,0.00,,,0.00,Wunderground v.1.15,2013-04-22 16:50:00,
2013-04-22 12:00:00,67.6,58.2,29.98,SSE,166,10.0,15.0,72,0.00,,,0.00,Wunderground v.1.15,2013-04-22 17:00:00,
2013-04-22 12:10:00,67.9,58.1,29.98,South,173,8.0,15.0,71,0.00,,,0.00,Wunderground v.1.15,2013-04-22 17:10:00,
2013-04-22 12:20:00,68.2,58.0,29.97,SSW,207,10.0,15.0,70,0.00,,,0.00,Wunderground v.1.15,2013-04-22 17:20:00,
2013-04-22 12:30:00,68.5,58.3,29.97,South,187,10.0,10.0,70,0.00,,,0.00,Wunderground v.1.15,2013-04-22 17:30:00,
2013-04-22 12:40:00,69.3,58.3,29.97,SSW,193,7.0,15.0,68,0.00,,,0.00,Wunderground v.1.15,2013-04-22 17:40:00,
2013-04-22 12:50:00,69.8,58.3,29.96,SSE,165,8.0,15.0,67,0.00,,,0.00,Wunderground v.1.15,2013-04-22 17:50:00,
2013-04-22 13:00:00,70.2,58.7,29.95,SSE,168,10.0,15.0,67,0.00,,,0.00,Wunderground v.1.15,2013-04-22 18:00:00,
2013-04-22 13:10:00,71.1,59.2,29.95,South,176,9.0,15.0,66,0.00,,,0.00,Wunderground v.1.15,2013-04-22 18:10:00,
2013-04-22 13:20:00,71.7,59.3,29.93,South,174,10.0,10.0,65,0.00,,,0.00,Wunderground v.1.15,2013-04-22 18:20:00,
2013-04-22 13:30:00,73.1,59.8,29.92,SW,215,8.0,15.0,63,0.00,,,0.00,Wunderground v.1.15,2013-04-22 18:30:00,
2013-04-22 13:40:00,73.4,59.1,29.92,SSW,202,8.0,8.0,61,0.00,,,0.00,Wunderground v.1.15,2013-04-22 18:40:00,
2013-04-22 13:50:00,74.3,59.0,29.91,SW,219,7.0,7.0,59,0.00,,,0.00,Wunderground v.1.15,2013-04-22 18:50:00,
2013-04-22 14:00:00,74.9,59.6,29.91,SW,216,6.0,15.0,59,0.00,,,0.00,Wunderground v.1.15,2013-04-22 19:00:00,
2013-04-22 14:10:00,75.3,59.0,29.90,SSW,201,9.0,9.0,57,0.00,,,0.00,Wunderground v.1.15,2013-04-22 19:10:00,
2013-04-22 14:20:00,75.8,59.0,29.90,SSW,199,9.0,9.0,56,0.00,,,0.00,Wunderground v.1.15,2013-04-22 19:20:00,
2013-04-22 14:30:00,76.1,59.8,29.89,SSW,195,9.0,15.0,57,0.00,,,0.00,Wunderground v.1.15,2013-04-22 19:30:00,
2013-04-22 14:40:00,77.1,60.7,29.88,South,183,11.0,11.0,57,0.00,,,0.00,Wunderground v.1.15,2013-04-22 19:40:00,
2013-04-22 14:50:00,77.3,59.4,29.88,SSW,198,9.0,15.0,54,0.00,,,0.00,Wunderground v.1.15,2013-04-22 19:50:00,
2013-04-22 15:00:00,78.1,59.6,29.87,SSE,165,8.0,15.0,53,0.00,,,0.00,Wunderground v.1.15,2013-04-22 20:00:00,
2013-04-22 15:10:00,78.6,60.0,29.86,South,169,13.0,13.0,53,0.00,,,0.00,Wunderground v.1.15,2013-04-22 20:10:00,
2013-04-22 15:20:00,79.3,59.6,29.85,SSE,164,10.0,10.0,51,0.00,,,0.00,Wunderground v.1.15,2013-04-22 20:20:00,
2013-04-22 15:30:00,80.4,60.1,29.84,SSE,148,10.0,17.0,50,0.00,,,0.00,Wunderground v.1.15,2013-04-22 20:30:00,
2013-04-22 15:40:00,80.9,58.8,29.83,South,190,9.0,15.0,47,0.00,,,0.00,Wunderground v.1.15,2013-04-22 20:40:00,
2013-04-22 15:50:00,80.7,59.8,29.82,SSE,152,12.0,15.0,49,0.00,,,0.00,Wunderground v.1.15,2013-04-22 20:50:00,
2013-04-22 16:00:00,81.3,59.7,29.82,SSE,147,13.0,18.0,48,0.00,,,0.00,Wunderground v.1.15,2013-04-22 21:00:00,
2013-04-22 16:10:00,81.4,59.8,29.81,SSW,192,14.0,14.0,48,0.00,,,0.00,Wunderground v.1.15,2013-04-22 21:10:00,
2013-04-22 16:20:00,81.6,59.4,29.81,South,172,12.0,15.0,47,0.00,,,0.00,Wunderground v.1.15,2013-04-22 21:20:00,
2013-04-22 16:30:00,81.4,59.2,29.80,SSE,151,14.0,18.0,47,0.00,,,0.00,Wunderground v.1.15,2013-04-22 21:30:00,
2013-04-22 16:40:00,81.7,59.5,29.80,South,182,13.0,13.0,47,0.00,,,0.00,Wunderground v.1.15,2013-04-22 21:40:00,
2013-04-22 16:50:00,81.6,59.4,29.79,SSW,194,12.0,15.0,47,0.00,,,0.00,Wunderground v.1.15,2013-04-22 21:50:00,
2013-04-22 17:00:00,81.6,58.8,29.79,South,180,12.0,12.0,46,0.00,,,0.00,Wunderground v.1.15,2013-04-22 22:00:00,
2013-04-22 17:10:00,81.7,58.9,29.78,SSE,163,13.0,15.0,46,0.00,,,0.00,Wunderground v.1.15,2013-04-22 22:10:00,
2013-04-22 17:20:00,81.8,58.4,29.77,SSE,161,13.0,17.0,45,0.00,,,0.00,Wunderground v.1.15,2013-04-22 22:20:00,
2013-04-22 17:30:00,81.8,57.8,29.77,South,188,14.0,14.0,44,0.00,,,0.00,Wunderground v.1.15,2013-04-22 22:30:00,
2013-04-22 17:40:00,82.0,57.3,29.77,SSE,166,12.0,15.0,43,0.00,,,0.00,Wunderground v.1.15,2013-04-22 22:40:00,
2013-04-22 17:50:00,82.2,57.5,29.76,South,183,13.0,15.0,43,0.00,,,0.00,Wunderground v.1.15,2013-04-22 22:50:00,
2013-04-22 18:00:00,82.0,57.3,29.76,South,176,11.0,15.0,43,0.00,,,0.00,Wunderground v.1.15,2013-04-22 23:00:00,
2013-04-22 18:10:00,81.8,57.1,29.76,South,179,13.0,13.0,43,0.00,,,0.00,Wunderground v.1.15,2013-04-22 23:10:00,
2013-04-22 18:20:00,81.7,56.4,29.76,South,180,11.0,15.0,42,0.00,,,0.00,Wunderground v.1.15,2013-04-22 23:20:00,
2013-04-22 18:30:00,81.5,56.8,29.76,South,189,10.0,10.0,43,0.00,,,0.00,Wunderground v.1.15,2013-04-22 23:30:00,
2013-04-22 18:40:00,81.1,55.8,29.76,South,171,13.0,15.0,42,0.00,,,0.00,Wunderground v.1.15,2013-04-22 23:40:00,
2013-04-22 18:50:00,81.0,56.4,29.75,South,175,11.0,15.0,43,0.00,,,0.00,Wunderground v.1.15,2013-04-22 23:50:00,
2013-04-22 19:00:00,80.7,56.1,29.75,South,181,13.0,20.0,43,0.00,,,0.00,Wunderground v.1.15,2013-04-23 00:00:00,
2013-04-22 19:10:00,80.2,56.3,29.75,South,172,12.0,20.0,44,0.00,,,0.00,Wunderground v.1.15,2013-04-23 00:10:00,
2013-04-22 19:20:00,79.9,56.0,29.75,South,178,14.0,15.0,44,0.00,,,0.00,Wunderground v.1.15,2013-04-23 00:20:00,
2013-04-22 19:30:00,79.3,56.1,29.75,South,189,12.0,12.0,45,0.00,,,0.00,Wunderground v.1.15,2013-04-23 00:30:00,
2013-04-22 19:40:00,78.9,56.4,29.74,South,175,11.0,11.0,46,0.00,,,0.00,Wunderground v.1.15,2013-04-23 00:40:00,
2013-04-22 19:50:00,78.4,56.5,29.75,South,177,8.0,8.0,47,0.00,,,0.00,Wunderground v.1.15,2013-04-23 00:50:00,
2013-04-22 20:00:00,77.8,56.5,29.75,South,184,7.0,15.0,48,0.00,,,0.00,Wunderground v.1.15,2013-04-23 01:00:00,
2013-04-22 20:10:00,77.2,56.6,29.75,South,175,7.0,7.0,49,0.00,,,0.00,Wunderground v.1.15,2013-04-23 01:10:00,
2013-04-22 20:20:00,76.6,56.6,29.75,South,180,7.0,7.0,50,0.00,,,0.00,Wunderground v.1.15,2013-04-23 01:20:00,
2013-04-22 20:30:00,76.2,56.7,29.75,South,180,4.0,15.0,51,0.00,,,0.00,Wunderground v.1.15,2013-04-23 01:30:00,
2013-04-22 20:40:00,75.8,56.9,29.75,South,171,5.0,5.0,52,0.00,,,0.00,Wunderground v.1.15,2013-04-23 01:40:00,
2013-04-22 20:50:00,75.1,56.8,29.76,South,172,5.0,15.0,53,0.00,,,0.00,Wunderground v.1.15,2013-04-23 01:50:00,
2013-04-22 21:00:00,74.8,57.0,29.76,South,179,6.0,15.0,54,0.00,,,0.00,Wunderground v.1.15,2013-04-23 02:00:00,
2013-04-22 21:10:00,74.7,56.9,29.76,South,178,6.0,15.0,54,0.00,,,0.00,Wunderground v.1.15,2013-04-23 02:10:00,
2013-04-22 21:20:00,74.6,56.9,29.76,South,176,8.0,8.0,54,0.00,,,0.00,Wunderground v.1.15,2013-04-23 02:20:00,
2013-04-22 21:30:00,74.4,57.2,29.77,South,181,7.0,7.0,55,0.00,,,0.00,Wunderground v.1.15,2013-04-23 02:30:00,
2013-04-22 21:40:00,73.7,57.0,29.76,South,182,2.0,15.0,56,0.00,,,0.00,Wunderground v.1.15,2013-04-23 02:40:00,
2013-04-22 21:50:00,73.7,57.0,29.77,South,184,6.0,15.0,56,0.00,,,0.00,Wunderground v.1.15,2013-04-23 02:50:00,
2013-04-22 22:00:00,73.8,57.6,29.77,South,175,9.0,15.0,57,0.00,,,0.00,Wunderground v.1.15,2013-04-23 03:00:00,
2013-04-22 22:10:00,73.7,57.5,29.77,South,178,7.0,7.0,57,0.00,,,0.00,Wunderground v.1.15,2013-04-23 03:10:00,
2013-04-22 22:20:00,73.4,57.7,29.78,SSE,168,7.0,7.0,58,0.00,,,0.00,Wunderground v.1.15,2013-04-23 03:20:00,
2013-04-22 22:30:00,72.8,57.6,29.78,SSE,167,3.0,3.0,59,0.00,,,0.00,Wunderground v.1.15,2013-04-23 03:30:00,
2013-04-22 22:40:00,71.5,56.9,29.78,SSE,167,0.0,15.0,60,0.00,,,0.00,Wunderground v.1.15,2013-04-23 03:40:00,
2013-04-22 22:50:00,70.7,57.0,29.78,SSE,167,0.0,15.0,62,0.00,,,0.00,Wunderground v.1.15,2013-04-23 03:50:00,
2013-04-22 23:00:00,69.6,56.9,29.78,SSE,167,0.0,15.0,64,0.00,,,0.00,Wunderground v.1.15,2013-04-23 04:00:00,
2013-04-22 23:10:00,68.8,57.0,29.78,SSE,167,0.0,15.0,66,0.00,,,0.00,Wunderground v.1.15,2013-04-23 04:10:00,
2013-04-22 23:20:00,68.2,56.8,29.78,SSE,167,0.0,15.0,67,0.00,,,0.00,Wunderground v.1.15,2013-04-23 04:20:00,
2013-04-22 23:30:00,67.7,56.8,29.77,SSE,167,0.0,15.0,68,0.00,,,0.00,Wunderground v.1.15,2013-04-23 04:30:00,
2013-04-22 23:40:00,67.5,57.0,29.77,SSE,167,0.0,15.0,69,0.00,,,0.00,Wunderground v.1.15,2013-04-23 04:40:00,
2013-04-22 23:50:00,67.3,57.2,29.77,SSE,167,0.0,15.0,70,0.00,,,0.00,Wunderground v.1.15,2013-04-23 04:50:00,